This demonstration page uses our WeatherBlox Daily Observations layout. Learn more.

Left ArrowRight Arrow

39.01783, -85.05884

Hourly Observations for August 2, 2015

Temp ( °F °C ) Dew Point ( °F °C ) Humidity (%) Winds ( mph kmh ) Pressure ( in mb ) Visibility ( mi km ) Precip ( " mm )
12:52 am 00:52 Mostly Clear 67 19.4 60 15.6 79 79 W 6 9 29.97 1015 10 16 N/A
1:52 am 01:52 Partly Cloudy 66 18.9 60 15.6 81 81 W 5 7 29.98 1015 10 16 N/A
2:52 am 02:52 Partly Cloudy 64 17.8 60 15.6 87 87 N N/A 29.97 1015 10 16 N/A
3:52 am 03:52 Mostly Cloudy 61 16.1 60 15.6 97 97 N N/A 29.97 1015 10 16 N/A
4:52 am 04:52 Mostly Cloudy 63 17.2 61 16.1 93 93 N N/A 29.96 1015 10 16 N/A
5:52 am 05:52 Mostly Cloudy 61 16.1 59 15 93 93 S 3 6 29.95 1014 10 16 N/A
6:52 am 06:52 Partly Cloudy 61 16.1 59 15 93 93 N N/A 29.96 1014 10 16 N/A
7:52 am 07:52 Partly Cloudy 66 18.9 62 16.7 87 87 N N/A 29.96 1015 10 16 N/A
8:52 am 08:52 Partly Cloudy 72 22.2 62 16.7 71 71 SW 3 6 29.97 1015 10 16 N/A
9:52 am 09:52 Sunny 77 25 60 15.6 56 56 SW 3 6 29.98 1015 10 16 N/A
10:52 am 10:52 Sunny 80 26.7 60 15.6 51 51 WSW 6 9 29.97 1015 10 16 N/A
11:52 am 11:52 Sunny 81 27.2 63 17.2 54 54 SSW 9 15 29.97 1015 10 16 N/A
12:52 pm 12:52 Mostly Sunny 83 28.3 61 16.1 48 48 SSW 8 13 29.96 1015 10 16 N/A
1:52 pm 13:52 Partly Cloudy 84 28.9 61 16.1 46 46 S 10 17 29.96 1014 10 16 N/A
2:52 pm 14:52 Partly Cloudy 86 30 62 16.7 45 45 SW 8 13 29.94 1014 10 16 N/A
3:52 pm 15:52 Partly Cloudy 86 30 62 16.7 45 45 VRB 3 6 29.93 1013 10 16 N/A
4:52 pm 16:52 Partly Cloudy 86 30 62 16.7 45 45 SW 8 13 29.91 1013 10 16 N/A
5:52 pm 17:52 Partly Cloudy 85 29.4 62 16.7 46 46 SSW 9 15 29.90 1012 10 16 N/A
6:52 pm 18:52 Partly Cloudy 83 28.3 61 16.1 48 48 SSW 8 13 29.89 1012 10 16 N/A
7:52 pm 19:52 Partly Cloudy 81 27.2 62 16.7 53 53 S 7 11 29.87 1012 10 16 N/A
8:52 pm 20:52 Partly Cloudy 77 25 62 16.7 60 60 S 7 11 29.86 1011 10 16 N/A
9:52 pm 21:52 Mostly Clear 75 23.9 61 16.1 62 62 SSW 6 9 29.86 1011 10 16 N/A
10:52 pm 22:52 Clear 71 21.7 61 16.1 71 71 SSW 6 9 29.88 1012 10 16 N/A
11:52 pm 23:52 Clear 71 21.7 62 16.7 73 73 SSW 7 11 29.86 1011 10 16 N/A

Powered by AerisWeather